TimeCDT,TemperatureF,Dew PointF,Humidity,Sea Level PressureIn,VisibilityMPH,Wind Direction,Wind SpeedMPH,Gust SpeedMPH,PrecipitationIn,Events,Conditions,WindDirDegrees,DateUTC
12:53 AM,28.0,16.0,61,30.32,10.0,NNW,3.5,-,N/A,,Clear,330,2014-03-25 05:53:00
1:53 AM,25.0,15.1,66,30.34,10.0,West,5.8,-,N/A,,Clear,260,2014-03-25 06:53:00
2:53 AM,28.0,19.0,69,30.36,10.0,NW,6.9,-,N/A,,Overcast,320,2014-03-25 07:53:00
3:53 AM,28.9,19.0,67,30.38,10.0,NNW,8.1,-,N/A,,Overcast,330,2014-03-25 08:53:00
4:53 AM,33.1,23.0,66,30.39,10.0,NNW,11.5,-,N/A,,Overcast,330,2014-03-25 09:53:00
5:53 AM,33.1,25.0,72,30.40,10.0,NNW,12.7,-,N/A,,Overcast,330,2014-03-25 10:53:00
6:31 AM,32.0,26.1,79,30.40,10.0,NNW,13.8,-,N/A,,Overcast,340,2014-03-25 11:31:00
6:44 AM,32.0,27.0,82,30.40,10.0,NNW,10.4,-,N/A,,Overcast,340,2014-03-25 11:44:00
6:53 AM,32.0,27.0,82,30.43,10.0,NNW,10.4,-,N/A,,Overcast,330,2014-03-25 11:53:00
7:53 AM,32.0,21.9,66,30.45,10.0,North,16.1,-,N/A,,Overcast,350,2014-03-25 12:53:00
8:53 AM,32.0,12.9,45,30.48,10.0,North,18.4,-,0.00,Snow,Light Snow,350,2014-03-25 13:53:00
9:53 AM,34.0,10.0,37,30.48,10.0,North,15.0,-,0.00,,Scattered Clouds,10,2014-03-25 14:53:00
10:53 AM,36.0,7.0,30,30.50,10.0,North,11.5,-,N/A,,Mostly Cloudy,10,2014-03-25 15:53:00
11:53 AM,37.9,10.0,32,30.47,10.0,North,10.4,13.8,N/A,,Partly Cloudy,350,2014-03-25 16:53:00
12:53 PM,39.9,10.0,29,30.45,10.0,North,8.1,-,N/A,,Clear,10,2014-03-25 17:53:00
1:53 PM,43.0,10.9,27,30.41,10.0,NNW,10.4,-,N/A,,Partly Cloudy,330,2014-03-25 18:53:00
2:53 PM,45.0,12.0,26,30.36,10.0,NNW,6.9,16.1,N/A,,Mostly Cloudy,330,2014-03-25 19:53:00
3:53 PM,44.1,12.0,27,30.32,10.0,NNE,5.8,-,0.00,,Clear,20,2014-03-25 20:53:00
4:53 PM,45.0,12.0,26,30.28,10.0,South,3.5,-,N/A,,Clear,190,2014-03-25 21:53:00
5:53 PM,46.0,12.0,25,30.26,10.0,Variable,3.5,-,N/A,,Clear,0,2014-03-25 22:53:00
6:53 PM,45.0,12.0,26,30.24,10.0,South,3.5,-,N/A,,Clear,180,2014-03-25 23:53:00
7:53 PM,43.0,12.0,28,30.22,10.0,ESE,5.8,-,N/A,,Clear,120,2014-03-26 00:53:00
8:53 PM,39.9,12.9,33,30.20,10.0,ESE,8.1,-,N/A,,Clear,120,2014-03-26 01:53:00
9:53 PM,37.9,12.9,36,30.19,10.0,SE,9.2,-,N/A,,Clear,130,2014-03-26 02:53:00
10:53 PM,35.1,15.1,44,30.18,10.0,SE,10.4,-,N/A,,Clear,140,2014-03-26 03:53:00
11:53 PM,35.1,14.0,42,30.16,10.0,SE,10.4,-,N/A,,Clear,130,2014-03-26 04:53:00